Year,Month,Day,Hour,Minute,Value (Times are PST for temperature in C)
2019,05,30,00,00,13.00
2019,05,30,00,01,13.00
2019,05,30,00,02,13.00
2019,05,30,00,03,13.00
2019,05,30,00,04,13.00
2019,05,30,00,05,13.00
2019,05,30,00,06,13.00
2019,05,30,00,07,13.00
2019,05,30,00,08,13.00
2019,05,30,00,09,13.00
2019,05,30,00,10,12.90
2019,05,30,00,11,12.90
2019,05,30,00,12,12.90
2019,05,30,00,13,12.90
2019,05,30,00,14,12.90
2019,05,30,00,15,12.90
2019,05,30,00,16,12.90
2019,05,30,00,17,12.90
2019,05,30,00,18,12.90
2019,05,30,00,19,12.90
2019,05,30,00,20,12.80
2019,05,30,00,21,12.80
2019,05,30,00,22,12.80
2019,05,30,00,23,12.80
2019,05,30,00,24,12.80
2019,05,30,00,25,12.80
2019,05,30,00,26,12.80
2019,05,30,00,27,12.80
2019,05,30,00,28,12.80
2019,05,30,00,29,12.80
2019,05,30,00,30,12.80
2019,05,30,00,31,12.80
2019,05,30,00,32,12.80
2019,05,30,00,33,12.80
2019,05,30,00,34,12.80
2019,05,30,00,35,12.80
2019,05,30,00,36,12.80
2019,05,30,00,37,12.80
2019,05,30,00,38,12.80
2019,05,30,00,39,12.80
2019,05,30,00,40,12.80
2019,05,30,00,41,12.80
2019,05,30,00,42,12.80
2019,05,30,00,43,12.80
2019,05,30,00,44,12.70
2019,05,30,00,45,12.70
2019,05,30,00,46,12.70
2019,05,30,00,47,12.70
2019,05,30,00,48,12.70
2019,05,30,00,49,12.70
2019,05,30,00,50,12.70
2019,05,30,00,51,12.70
2019,05,30,00,52,12.60
2019,05,30,00,53,12.60
2019,05,30,00,54,12.60
2019,05,30,00,55,12.60
2019,05,30,00,56,12.60
2019,05,30,00,57,12.50
2019,05,30,00,58,12.50
2019,05,30,00,59,12.50
2019,05,30,01,00,12.50
2019,05,30,01,01,12.50
2019,05,30,01,02,12.50
2019,05,30,01,03,12.50
2019,05,30,01,04,12.40
2019,05,30,01,05,12.40
2019,05,30,01,06,12.40
2019,05,30,01,07,12.40
2019,05,30,01,08,12.40
2019,05,30,01,09,12.40
2019,05,30,01,10,12.40
2019,05,30,01,11,12.40
2019,05,30,01,12,12.40
2019,05,30,01,13,12.40
2019,05,30,01,14,12.40
2019,05,30,01,15,12.40
2019,05,30,01,16,12.40
2019,05,30,01,17,12.40
2019,05,30,01,18,12.40
2019,05,30,01,19,12.40
2019,05,30,01,20,12.40
2019,05,30,01,21,12.40
2019,05,30,01,22,12.40
2019,05,30,01,23,12.40
2019,05,30,01,24,12.40
2019,05,30,01,25,12.40
2019,05,30,01,26,12.40
2019,05,30,01,27,12.30
2019,05,30,01,28,12.30
2019,05,30,01,29,12.30
2019,05,30,01,30,12.30
2019,05,30,01,31,12.30
2019,05,30,01,32,12.30
2019,05,30,01,33,12.30
2019,05,30,01,34,12.20
2019,05,30,01,35,12.20
2019,05,30,01,36,12.20
2019,05,30,01,37,12.20
2019,05,30,01,38,12.20
2019,05,30,01,39,12.20
2019,05,30,01,40,12.20
2019,05,30,01,41,12.20
2019,05,30,01,42,12.20
2019,05,30,01,43,12.20
2019,05,30,01,44,12.20
2019,05,30,01,45,12.10
2019,05,30,01,46,12.10
2019,05,30,01,47,12.10
2019,05,30,01,48,12.10
2019,05,30,01,49,12.10
2019,05,30,01,50,12.10
2019,05,30,01,51,12.10
2019,05,30,01,52,12.10
2019,05,30,01,53,12.10
2019,05,30,01,54,12.10
2019,05,30,01,55,12.10
2019,05,30,01,56,12.10
2019,05,30,01,57,12.00
2019,05,30,01,58,12.00
2019,05,30,01,59,12.00
2019,05,30,02,00,12.00
2019,05,30,02,01,12.00
2019,05,30,02,02,12.00
2019,05,30,02,03,12.00
2019,05,30,02,04,12.00
2019,05,30,02,05,12.00
2019,05,30,02,06,12.00
2019,05,30,02,07,12.00
2019,05,30,02,08,12.00
2019,05,30,02,09,11.90
2019,05,30,02,10,11.90
2019,05,30,02,11,11.90
2019,05,30,02,12,11.90
2019,05,30,02,13,11.90
2019,05,30,02,14,11.90
2019,05,30,02,15,11.90
2019,05,30,02,16,11.90
2019,05,30,02,17,11.90
2019,05,30,02,18,11.90
2019,05,30,02,19,11.90
2019,05,30,02,20,11.90
2019,05,30,02,21,11.90
2019,05,30,02,22,11.90
2019,05,30,02,23,11.90
2019,05,30,02,24,11.90
2019,05,30,02,25,11.90
2019,05,30,02,26,11.80
2019,05,30,02,27,11.80
2019,05,30,02,28,11.80
2019,05,30,02,29,11.80
2019,05,30,02,30,11.80
2019,05,30,02,31,11.80
2019,05,30,02,32,11.70
2019,05,30,02,33,11.70
2019,05,30,02,34,11.70
2019,05,30,02,35,11.70
2019,05,30,02,36,11.60
2019,05,30,02,37,11.60
2019,05,30,02,38,11.60
2019,05,30,02,39,11.60
2019,05,30,02,40,11.60
2019,05,30,02,41,11.60
2019,05,30,02,42,11.60
2019,05,30,02,43,11.60
2019,05,30,02,44,11.60
2019,05,30,02,45,11.60
2019,05,30,02,46,11.50
2019,05,30,02,47,11.50
2019,05,30,02,48,11.50
2019,05,30,02,49,11.50
2019,05,30,02,50,11.50
2019,05,30,02,51,11.50
2019,05,30,02,52,11.50
2019,05,30,02,53,11.50
2019,05,30,02,54,11.40
2019,05,30,02,55,11.40
2019,05,30,02,56,11.40
2019,05,30,02,57,11.40
2019,05,30,02,58,11.40
2019,05,30,02,59,11.40
2019,05,30,03,00,11.40
2019,05,30,03,01,11.30
2019,05,30,03,02,11.30
2019,05,30,03,03,11.30
2019,05,30,03,04,11.30
2019,05,30,03,05,11.30
2019,05,30,03,06,11.30
2019,05,30,03,07,11.30
2019,05,30,03,08,11.30
2019,05,30,03,09,11.30
2019,05,30,03,10,11.30
2019,05,30,03,11,11.30
2019,05,30,03,12,11.30
2019,05,30,03,13,11.30
2019,05,30,03,14,11.30
2019,05,30,03,15,11.30
2019,05,30,03,16,11.30
2019,05,30,03,17,11.30
2019,05,30,03,18,11.30
2019,05,30,03,19,11.30
2019,05,30,03,20,11.30
2019,05,30,03,21,11.30
2019,05,30,03,22,11.30
2019,05,30,03,23,11.30
2019,05,30,03,24,11.30
2019,05,30,03,25,11.30
2019,05,30,03,26,11.30
2019,05,30,03,27,11.30
2019,05,30,03,28,11.30
2019,05,30,03,29,11.30
2019,05,30,03,30,11.20
2019,05,30,03,31,11.20
2019,05,30,03,32,11.20
2019,05,30,03,33,11.20
2019,05,30,03,34,11.20
2019,05,30,03,35,11.20
2019,05,30,03,36,11.20
2019,05,30,03,37,11.20
2019,05,30,03,38,11.20
2019,05,30,03,39,11.20
2019,05,30,03,40,11.20
2019,05,30,03,41,11.10
2019,05,30,03,42,11.10
2019,05,30,03,43,11.10
2019,05,30,03,44,11.10
2019,05,30,03,45,11.10
2019,05,30,03,46,11.10
2019,05,30,03,47,11.00
2019,05,30,03,48,11.00
2019,05,30,03,49,11.00
2019,05,30,03,50,11.00
2019,05,30,03,51,11.00
2019,05,30,03,52,11.00
2019,05,30,03,53,11.00
2019,05,30,03,54,10.90
2019,05,30,03,55,10.90
2019,05,30,03,56,10.90
2019,05,30,03,57,10.90
2019,05,30,03,58,10.90
2019,05,30,03,59,10.90
2019,05,30,04,00,10.90
2019,05,30,04,01,10.90
2019,05,30,04,02,10.90
2019,05,30,04,03,10.90
2019,05,30,04,04,10.90
2019,05,30,04,05,10.90
2019,05,30,04,06,10.90
2019,05,30,04,07,10.90
2019,05,30,04,08,10.90
2019,05,30,04,09,10.90
2019,05,30,04,10,10.90
2019,05,30,04,11,10.90
2019,05,30,04,12,10.90
2019,05,30,04,13,10.90
2019,05,30,04,14,10.90
2019,05,30,04,15,10.90
2019,05,30,04,16,10.90
2019,05,30,04,17,10.80
2019,05,30,04,18,10.80
2019,05,30,04,19,10.80
2019,05,30,04,20,10.80
2019,05,30,04,21,10.80
2019,05,30,04,22,10.80
2019,05,30,04,23,10.80
2019,05,30,04,24,10.80
2019,05,30,04,25,10.80
2019,05,30,04,26,10.80
2019,05,30,04,27,10.80
2019,05,30,04,28,10.80
2019,05,30,04,29,10.70
2019,05,30,04,30,10.70
2019,05,30,04,31,10.80
2019,05,30,04,32,10.80
2019,05,30,04,33,10.80
2019,05,30,04,34,10.80
2019,05,30,04,35,10.80
2019,05,30,04,36,10.80
2019,05,30,04,37,10.80
2019,05,30,04,38,10.80
2019,05,30,04,39,10.80
2019,05,30,04,40,10.80
2019,05,30,04,41,10.80
2019,05,30,04,42,10.70
2019,05,30,04,43,10.70
2019,05,30,04,44,10.70
2019,05,30,04,45,10.70
2019,05,30,04,46,10.70
2019,05,30,04,47,10.70
2019,05,30,04,48,10.70
2019,05,30,04,49,10.70
2019,05,30,04,50,10.70
2019,05,30,04,51,10.70
2019,05,30,04,52,10.70
2019,05,30,04,53,10.70
2019,05,30,04,54,10.70
2019,05,30,04,55,10.70
2019,05,30,04,56,10.70
2019,05,30,04,57,10.70
2019,05,30,04,58,10.70
2019,05,30,04,59,10.70
2019,05,30,05,00,10.70
2019,05,30,05,01,10.70
2019,05,30,05,02,10.60
2019,05,30,05,03,10.60
2019,05,30,05,04,10.60
2019,05,30,05,05,10.60
2019,05,30,05,06,10.60
2019,05,30,05,07,10.60
2019,05,30,05,08,10.60
2019,05,30,05,09,10.60
2019,05,30,05,10,10.60
2019,05,30,05,11,10.60
2019,05,30,05,12,10.60
2019,05,30,05,13,10.60
2019,05,30,05,14,10.60
2019,05,30,05,15,10.60
2019,05,30,05,16,10.60
2019,05,30,05,17,10.60
2019,05,30,05,18,10.60
2019,05,30,05,19,10.60
2019,05,30,05,20,10.60
2019,05,30,05,21,10.60
2019,05,30,05,22,10.60
2019,05,30,05,23,10.60
2019,05,30,05,24,10.60
2019,05,30,05,25,10.60
2019,05,30,05,26,10.60
2019,05,30,05,27,10.60
2019,05,30,05,28,10.60
2019,05,30,05,29,10.60
2019,05,30,05,30,10.60
2019,05,30,05,31,10.60
2019,05,30,05,32,10.60
2019,05,30,05,33,10.70
2019,05,30,05,34,10.70
2019,05,30,05,35,10.70
2019,05,30,05,36,10.70
2019,05,30,05,37,10.70
2019,05,30,05,38,10.70
2019,05,30,05,39,10.70
2019,05,30,05,40,10.70
2019,05,30,05,41,10.70
2019,05,30,05,42,10.70
2019,05,30,05,43,10.70
2019,05,30,05,44,10.70
2019,05,30,05,45,10.70
2019,05,30,05,46,10.80
2019,05,30,05,47,10.80
2019,05,30,05,48,10.80
2019,05,30,05,49,10.80
2019,05,30,05,50,10.80
2019,05,30,05,51,10.80
2019,05,30,05,52,10.80
2019,05,30,05,53,10.90
2019,05,30,05,54,10.90
2019,05,30,05,55,10.90
2019,05,30,05,56,10.90
2019,05,30,05,57,10.90
2019,05,30,05,58,10.90
2019,05,30,05,59,10.90
2019,05,30,06,00,10.90
2019,05,30,06,01,10.90
2019,05,30,06,02,10.90
2019,05,30,06,03,11.00
2019,05,30,06,04,10.90
2019,05,30,06,05,10.90
2019,05,30,06,06,10.90
2019,05,30,06,07,10.90
2019,05,30,06,08,10.90
2019,05,30,06,09,10.90
2019,05,30,06,10,10.90
2019,05,30,06,11,10.90
2019,05,30,06,12,10.90
2019,05,30,06,13,10.90
2019,05,30,06,14,10.90
2019,05,30,06,15,10.90
2019,05,30,06,16,10.90
2019,05,30,06,17,10.90
2019,05,30,06,18,10.90
2019,05,30,06,19,10.90
2019,05,30,06,20,10.90
2019,05,30,06,21,10.90
2019,05,30,06,22,10.90
2019,05,30,06,23,11.00
2019,05,30,06,24,11.00
2019,05,30,06,25,11.00
2019,05,30,06,26,11.00
2019,05,30,06,27,11.10
2019,05,30,06,28,11.10
2019,05,30,06,29,11.10
2019,05,30,06,30,11.10
2019,05,30,06,31,11.10
2019,05,30,06,32,11.20
2019,05,30,06,33,11.20
2019,05,30,06,34,11.20
2019,05,30,06,35,11.20
2019,05,30,06,36,11.20
2019,05,30,06,37,11.20
2019,05,30,06,38,11.30
2019,05,30,06,39,11.30
2019,05,30,06,40,11.30
2019,05,30,06,41,11.30
2019,05,30,06,42,11.30
2019,05,30,06,43,11.30
2019,05,30,06,44,11.30
2019,05,30,06,45,11.30
2019,05,30,06,46,11.30
2019,05,30,06,47,11.30
2019,05,30,06,48,11.30
2019,05,30,06,49,11.30
2019,05,30,06,50,11.30
2019,05,30,06,51,11.40
2019,05,30,06,52,11.40
2019,05,30,06,53,11.40
2019,05,30,06,54,11.40
2019,05,30,06,55,11.40
2019,05,30,06,56,11.40
2019,05,30,06,57,11.40
2019,05,30,06,58,11.40
2019,05,30,06,59,11.50
2019,05,30,07,00,11.50
2019,05,30,07,01,11.50
2019,05,30,07,02,11.50
2019,05,30,07,03,11.60
2019,05,30,07,04,11.60
2019,05,30,07,05,11.60
2019,05,30,07,06,11.60
2019,05,30,07,07,11.60
2019,05,30,07,08,11.70
2019,05,30,07,09,11.70
2019,05,30,07,10,11.70
2019,05,30,07,11,11.60
2019,05,30,07,12,11.60
2019,05,30,07,13,11.60
2019,05,30,07,14,11.70
2019,05,30,07,15,11.70
2019,05,30,07,16,11.70
2019,05,30,07,17,11.70
2019,05,30,07,18,11.70
2019,05,30,07,19,11.70
2019,05,30,07,20,11.70
2019,05,30,07,21,11.70
2019,05,30,07,22,11.70
2019,05,30,07,23,11.70
2019,05,30,07,24,11.70
2019,05,30,07,25,11.70
2019,05,30,07,26,11.70
2019,05,30,07,27,11.70
2019,05,30,07,28,11.80
2019,05,30,07,29,11.80
2019,05,30,07,30,11.70
2019,05,30,07,31,11.70
2019,05,30,07,32,11.70
2019,05,30,07,33,11.70
2019,05,30,07,34,11.70
2019,05,30,07,35,11.70
2019,05,30,07,36,11.70
2019,05,30,07,37,11.70
2019,05,30,07,38,11.70
2019,05,30,07,39,11.70
2019,05,30,07,40,11.70
2019,05,30,07,41,11.70
2019,05,30,07,42,11.70
2019,05,30,07,43,11.70
2019,05,30,07,44,11.70
2019,05,30,07,45,11.70
2019,05,30,07,46,11.70
2019,05,30,07,47,11.70
2019,05,30,07,48,11.70
2019,05,30,07,49,11.70
2019,05,30,07,50,11.70
2019,05,30,07,51,11.70
2019,05,30,07,52,11.70
2019,05,30,07,53,11.70
2019,05,30,07,54,11.70
2019,05,30,07,55,11.70
2019,05,30,07,56,11.70
2019,05,30,07,57,11.80
2019,05,30,07,58,11.80
2019,05,30,07,59,11.80
2019,05,30,08,00,11.90
2019,05,30,08,01,11.90
2019,05,30,08,02,12.00
2019,05,30,08,03,12.00
2019,05,30,08,04,12.00
2019,05,30,08,05,12.00
2019,05,30,08,06,12.10
2019,05,30,08,07,12.10
2019,05,30,08,08,12.20
2019,05,30,08,09,12.20
2019,05,30,08,10,12.20
2019,05,30,08,11,12.20
2019,05,30,08,12,12.20
2019,05,30,08,13,12.20
2019,05,30,08,14,12.30
2019,05,30,08,15,12.30
2019,05,30,08,16,12.30
2019,05,30,08,17,12.30
2019,05,30,08,18,12.30
2019,05,30,08,19,12.30
2019,05,30,08,20,12.40
2019,05,30,08,21,12.40
2019,05,30,08,22,12.50
2019,05,30,08,23,12.50
2019,05,30,08,24,12.50
2019,05,30,08,25,12.50
2019,05,30,08,26,12.60
2019,05,30,08,27,12.60
2019,05,30,08,28,12.60
2019,05,30,08,29,12.60
2019,05,30,08,30,12.60
2019,05,30,08,31,12.60
2019,05,30,08,32,12.60
2019,05,30,08,33,12.60
2019,05,30,08,34,12.60
2019,05,30,08,35,12.60
2019,05,30,08,36,12.60
2019,05,30,08,37,12.60
2019,05,30,08,38,12.60
2019,05,30,08,39,12.70
2019,05,30,08,40,12.70
2019,05,30,08,41,12.70
2019,05,30,08,42,12.80
2019,05,30,08,43,12.80
2019,05,30,08,44,12.90
2019,05,30,08,45,13.00
2019,05,30,08,46,13.10
2019,05,30,08,47,13.20
2019,05,30,08,48,13.30
2019,05,30,08,49,13.30
2019,05,30,08,50,13.40
2019,05,30,08,51,13.50
2019,05,30,08,52,13.50
2019,05,30,08,53,13.60
2019,05,30,08,54,13.60
2019,05,30,08,55,13.70
2019,05,30,08,56,13.80
2019,05,30,08,57,13.90
2019,05,30,08,58,14.00
2019,05,30,08,59,14.20
2019,05,30,09,00,14.30
2019,05,30,09,01,14.40
2019,05,30,09,02,14.40
2019,05,30,09,03,14.40
2019,05,30,09,04,14.40
2019,05,30,09,05,14.50
2019,05,30,09,06,14.50
2019,05,30,09,07,14.40
2019,05,30,09,08,14.40
2019,05,30,09,09,14.40
2019,05,30,09,10,14.40
2019,05,30,09,11,14.40
2019,05,30,09,12,14.40
2019,05,30,09,13,14.40
2019,05,30,09,14,14.40
2019,05,30,09,15,14.40
2019,05,30,09,16,14.40
2019,05,30,09,17,14.40
2019,05,30,09,18,14.40
2019,05,30,09,19,14.40
2019,05,30,09,20,14.40
2019,05,30,09,21,14.40
2019,05,30,09,22,14.30
2019,05,30,09,23,14.30
2019,05,30,09,24,14.30
2019,05,30,09,25,14.30
2019,05,30,09,26,14.30
2019,05,30,09,27,14.40
2019,05,30,09,28,14.40
2019,05,30,09,29,14.50
2019,05,30,09,30,14.50
2019,05,30,09,31,14.50
2019,05,30,09,32,14.60
2019,05,30,09,33,14.60
2019,05,30,09,34,14.70
2019,05,30,09,35,14.80
2019,05,30,09,36,14.90
2019,05,30,09,37,15.00
2019,05,30,09,38,15.00
2019,05,30,09,39,15.10
2019,05,30,09,40,15.10
2019,05,30,09,41,15.20
2019,05,30,09,42,15.20
2019,05,30,09,43,15.30
2019,05,30,09,44,15.30
2019,05,30,09,45,15.40
2019,05,30,09,46,15.50
2019,05,30,09,47,15.50
2019,05,30,09,48,15.60
2019,05,30,09,49,15.70
2019,05,30,09,50,15.80
2019,05,30,09,51,15.80
2019,05,30,09,52,15.90
2019,05,30,09,53,15.90
2019,05,30,09,54,16.00
2019,05,30,09,55,16.20
2019,05,30,09,56,16.30
2019,05,30,09,57,16.30
2019,05,30,09,58,16.40
2019,05,30,09,59,16.40
2019,05,30,10,00,16.40
2019,05,30,10,01,16.40
2019,05,30,10,02,16.40
2019,05,30,10,03,16.40
2019,05,30,10,04,16.40
2019,05,30,10,05,16.40
2019,05,30,10,06,16.50
2019,05,30,10,07,16.50
2019,05,30,10,08,16.50
2019,05,30,10,09,16.60
2019,05,30,10,10,16.60
2019,05,30,10,11,16.60
2019,05,30,10,12,16.70
2019,05,30,10,13,16.80
2019,05,30,10,14,16.80
2019,05,30,10,15,16.90
2019,05,30,10,16,17.00
2019,05,30,10,17,17.10
2019,05,30,10,18,17.10
2019,05,30,10,19,17.10
2019,05,30,10,20,17.10
2019,05,30,10,21,17.10
2019,05,30,10,22,17.20
2019,05,30,10,23,17.20
2019,05,30,10,24,17.20
2019,05,30,10,25,17.20
2019,05,30,10,26,17.20
2019,05,30,10,27,17.30
2019,05,30,10,28,17.30
2019,05,30,10,29,17.30
2019,05,30,10,30,17.40
2019,05,30,10,31,17.40
2019,05,30,10,32,17.50
2019,05,30,10,33,17.60
2019,05,30,10,34,17.60
2019,05,30,10,35,17.70
2019,05,30,10,36,17.70
2019,05,30,10,37,17.80
2019,05,30,10,38,17.90
2019,05,30,10,39,18.00
2019,05,30,10,40,18.10
2019,05,30,10,41,18.20
2019,05,30,10,42,18.30
2019,05,30,10,43,18.40
2019,05,30,10,44,18.50
2019,05,30,10,45,18.70
2019,05,30,10,46,18.80
2019,05,30,10,47,18.90
2019,05,30,10,48,19.00
2019,05,30,10,49,19.10
2019,05,30,10,50,19.20
2019,05,30,10,51,19.20
2019,05,30,10,52,19.20
2019,05,30,10,53,19.30
2019,05,30,10,54,19.30
2019,05,30,10,55,19.40
2019,05,30,10,56,19.40
2019,05,30,10,57,19.40
2019,05,30,10,58,19.40
2019,05,30,10,59,19.40
2019,05,30,11,00,19.50
2019,05,30,11,01,19.40
2019,05,30,11,02,19.40
2019,05,30,11,03,19.50
2019,05,30,11,04,19.40
2019,05,30,11,05,19.50
2019,05,30,11,06,19.50
2019,05,30,11,07,19.50
2019,05,30,11,08,19.50
2019,05,30,11,09,19.60
2019,05,30,11,10,19.60
2019,05,30,11,11,19.70
2019,05,30,11,12,19.80
2019,05,30,11,13,19.80
2019,05,30,11,14,19.90
2019,05,30,11,15,19.90
2019,05,30,11,16,20.00
2019,05,30,11,17,20.00
2019,05,30,11,18,20.10
2019,05,30,11,19,20.10
2019,05,30,11,20,20.20
2019,05,30,11,21,20.30
2019,05,30,11,22,20.40
2019,05,30,11,23,20.50
2019,05,30,11,24,20.60
2019,05,30,11,25,20.70
2019,05,30,11,26,20.70
2019,05,30,11,27,20.70
2019,05,30,11,28,20.80
2019,05,30,11,29,20.80
2019,05,30,11,30,20.90
2019,05,30,11,31,20.90
2019,05,30,11,32,20.90
2019,05,30,11,33,21.00
2019,05,30,11,34,21.00
2019,05,30,11,35,21.20
2019,05,30,11,36,21.30
2019,05,30,11,37,21.40
2019,05,30,11,38,21.50
2019,05,30,11,39,21.60
2019,05,30,11,40,21.70
2019,05,30,11,41,21.70
2019,05,30,11,42,21.80
2019,05,30,11,43,21.80
2019,05,30,11,44,21.90
2019,05,30,11,45,21.90
2019,05,30,11,46,21.90
2019,05,30,11,47,22.00
2019,05,30,11,48,22.10
2019,05,30,11,49,22.20
2019,05,30,11,50,22.20
2019,05,30,11,51,22.30
2019,05,30,11,52,22.30
2019,05,30,11,53,22.30
2019,05,30,11,54,22.30
2019,05,30,11,55,22.20
2019,05,30,11,56,22.20
2019,05,30,11,57,22.20
2019,05,30,11,58,22.20
2019,05,30,11,59,22.20
2019,05,30,12,00,22.30
2019,05,30,12,01,22.30
2019,05,30,12,02,22.40
2019,05,30,12,03,22.40
2019,05,30,12,04,22.40
2019,05,30,12,05,22.40
2019,05,30,12,06,22.50
2019,05,30,12,07,22.60
2019,05,30,12,08,22.70
2019,05,30,12,09,22.70
2019,05,30,12,10,22.80
2019,05,30,12,11,22.80
2019,05,30,12,12,22.90
2019,05,30,12,13,23.00
2019,05,30,12,14,23.10
2019,05,30,12,15,23.20
2019,05,30,12,16,23.30
2019,05,30,12,17,23.20
2019,05,30,12,18,23.20
2019,05,30,12,19,23.20
2019,05,30,12,20,23.20
2019,05,30,12,21,23.20
2019,05,30,12,22,23.30
2019,05,30,12,23,23.30
2019,05,30,12,24,23.30
2019,05,30,12,25,23.40
2019,05,30,12,26,23.50
2019,05,30,12,27,23.50
2019,05,30,12,28,23.50
2019,05,30,12,29,23.40
2019,05,30,12,30,23.40
2019,05,30,12,31,23.40
2019,05,30,12,32,23.50
2019,05,30,12,33,23.50
2019,05,30,12,34,23.40
2019,05,30,12,35,23.50
2019,05,30,12,36,23.50
2019,05,30,12,37,23.60
2019,05,30,12,38,23.60
2019,05,30,12,39,23.60
2019,05,30,12,40,23.60
2019,05,30,12,41,23.60
2019,05,30,12,42,23.70
2019,05,30,12,43,23.70
2019,05,30,12,44,23.70
2019,05,30,12,45,23.70
2019,05,30,12,46,23.70
2019,05,30,12,47,23.70
2019,05,30,12,48,23.60
2019,05,30,12,49,23.60
2019,05,30,12,50,23.50
2019,05,30,12,51,23.50
2019,05,30,12,52,23.50
2019,05,30,12,53,23.60
2019,05,30,12,54,23.70
2019,05,30,12,55,23.80
2019,05,30,12,56,24.00
2019,05,30,12,57,24.10
2019,05,30,12,58,24.10
2019,05,30,12,59,24.10
2019,05,30,13,00,24.10
2019,05,30,13,01,24.10
2019,05,30,13,02,24.10
2019,05,30,13,03,24.10
2019,05,30,13,04,24.10
2019,05,30,13,05,24.10
2019,05,30,13,06,24.10
2019,05,30,13,07,24.20
2019,05,30,13,08,24.20
2019,05,30,13,09,24.30
2019,05,30,13,10,24.40
2019,05,30,13,11,24.50
2019,05,30,13,12,24.50
2019,05,30,13,13,24.50
2019,05,30,13,14,24.40
2019,05,30,13,15,24.50
2019,05,30,13,16,24.50
2019,05,30,13,17,24.60
2019,05,30,13,18,24.50
2019,05,30,13,19,24.60
2019,05,30,13,20,24.60
2019,05,30,13,21,24.70
2019,05,30,13,22,24.70
2019,05,30,13,23,24.80
2019,05,30,13,24,24.80
2019,05,30,13,25,24.80
2019,05,30,13,26,24.80
2019,05,30,13,27,24.90
2019,05,30,13,28,24.90
2019,05,30,13,29,24.80
2019,05,30,13,30,24.90
2019,05,30,13,31,25.00
2019,05,30,13,32,25.00
2019,05,30,13,33,25.00
2019,05,30,13,34,25.00
2019,05,30,13,35,25.00
2019,05,30,13,36,25.00
2019,05,30,13,37,25.10
2019,05,30,13,38,25.10
2019,05,30,13,39,25.10
2019,05,30,13,40,25.10
2019,05,30,13,41,25.10
2019,05,30,13,42,25.10
2019,05,30,13,43,25.10
2019,05,30,13,44,25.20
2019,05,30,13,45,25.20
2019,05,30,13,46,25.20
2019,05,30,13,47,25.20
2019,05,30,13,48,25.20
2019,05,30,13,49,25.30
2019,05,30,13,50,25.40
2019,05,30,13,51,25.40
2019,05,30,13,52,25.50
2019,05,30,13,53,25.60
2019,05,30,13,54,25.60
2019,05,30,13,55,25.60
2019,05,30,13,56,25.60
2019,05,30,13,57,25.60
2019,05,30,13,58,25.70
2019,05,30,13,59,25.80
2019,05,30,14,00,25.80
2019,05,30,14,01,25.80
2019,05,30,14,02,25.80
2019,05,30,14,03,25.70
2019,05,30,14,04,25.70
2019,05,30,14,05,25.70
2019,05,30,14,06,25.70
2019,05,30,14,07,25.70
2019,05,30,14,08,25.80
2019,05,30,14,09,25.80
2019,05,30,14,10,25.80
2019,05,30,14,11,25.80
2019,05,30,14,12,25.80
2019,05,30,14,13,25.70
2019,05,30,14,14,25.70
2019,05,30,14,15,25.80
2019,05,30,14,16,25.90
2019,05,30,14,17,26.00
2019,05,30,14,18,26.00
2019,05,30,14,19,26.00
2019,05,30,14,20,26.20
2019,05,30,14,21,26.20
2019,05,30,14,22,26.30
2019,05,30,14,23,26.30
2019,05,30,14,24,26.30
2019,05,30,14,25,26.30
2019,05,30,14,26,26.30
2019,05,30,14,27,26.30
2019,05,30,14,28,26.30
2019,05,30,14,29,26.30
2019,05,30,14,30,26.30
2019,05,30,14,31,26.40
2019,05,30,14,32,26.40
2019,05,30,14,33,26.50
2019,05,30,14,34,26.50
2019,05,30,14,35,26.70
2019,05,30,14,36,27.00
2019,05,30,14,37,27.20
2019,05,30,14,38,27.40
2019,05,30,14,39,27.40
2019,05,30,14,40,27.40
2019,05,30,14,41,27.40
2019,05,30,14,42,27.40
2019,05,30,14,43,27.40
2019,05,30,14,44,27.40
2019,05,30,14,45,27.30
2019,05,30,14,46,27.20
2019,05,30,14,47,27.20
2019,05,30,14,48,27.20
2019,05,30,14,49,27.30
2019,05,30,14,50,27.40
2019,05,30,14,51,27.50
2019,05,30,14,52,27.50
2019,05,30,14,53,27.50
2019,05,30,14,54,27.50
2019,05,30,14,55,27.50
2019,05,30,14,56,27.60
2019,05,30,14,57,27.60
2019,05,30,14,58,27.60
2019,05,30,14,59,27.60
2019,05,30,15,00,27.50
2019,05,30,15,01,27.40
2019,05,30,15,02,27.20
2019,05,30,15,03,27.10
2019,05,30,15,04,27.00
2019,05,30,15,05,26.80
2019,05,30,15,06,26.80
2019,05,30,15,07,26.70
2019,05,30,15,08,26.70
2019,05,30,15,09,26.70
2019,05,30,15,10,26.70
2019,05,30,15,11,26.80
2019,05,30,15,12,26.80
2019,05,30,15,13,26.80
2019,05,30,15,14,26.70
2019,05,30,15,15,26.60
2019,05,30,15,16,26.60
2019,05,30,15,17,26.60
2019,05,30,15,18,26.50
2019,05,30,15,19,26.50
2019,05,30,15,20,26.50
2019,05,30,15,21,26.50
2019,05,30,15,22,26.40
2019,05,30,15,23,26.50
2019,05,30,15,24,26.50
2019,05,30,15,25,26.60
2019,05,30,15,26,26.60
2019,05,30,15,27,26.60
2019,05,30,15,28,26.60
2019,05,30,15,29,26.50
2019,05,30,15,30,26.40
2019,05,30,15,31,26.40
2019,05,30,15,32,26.40
2019,05,30,15,33,26.40
2019,05,30,15,34,26.30
2019,05,30,15,35,26.30
2019,05,30,15,36,26.20
2019,05,30,15,37,26.20
2019,05,30,15,38,26.20
2019,05,30,15,39,26.20
2019,05,30,15,40,26.30
2019,05,30,15,41,26.40
2019,05,30,15,42,26.50
2019,05,30,15,43,26.50
2019,05,30,15,44,26.60
2019,05,30,15,45,26.70
2019,05,30,15,46,26.80
2019,05,30,15,47,26.90
2019,05,30,15,48,26.90
2019,05,30,15,49,26.90
2019,05,30,15,50,26.90
2019,05,30,15,51,26.80
2019,05,30,15,52,26.80
2019,05,30,15,53,26.80
2019,05,30,15,54,26.70
2019,05,30,15,55,26.70
2019,05,30,15,56,26.70
2019,05,30,15,57,26.60
2019,05,30,15,58,26.60
2019,05,30,15,59,26.50
2019,05,30,16,00,26.50
2019,05,30,16,01,26.60
2019,05,30,16,02,26.60
2019,05,30,16,03,26.60
2019,05,30,16,04,26.60
2019,05,30,16,05,26.60
2019,05,30,16,06,26.70
2019,05,30,16,07,26.70
2019,05,30,16,08,26.90
2019,05,30,16,09,27.00
2019,05,30,16,10,27.10
2019,05,30,16,11,27.20
2019,05,30,16,12,27.30
2019,05,30,16,13,27.30
2019,05,30,16,14,27.30
2019,05,30,16,15,27.30
2019,05,30,16,16,27.30
2019,05,30,16,17,27.30
2019,05,30,16,18,27.20
2019,05,30,16,19,27.20
2019,05,30,16,20,27.10
2019,05,30,16,21,27.10
2019,05,30,16,22,27.10
2019,05,30,16,23,27.10
2019,05,30,16,24,27.10
2019,05,30,16,25,27.10
2019,05,30,16,26,27.20
2019,05,30,16,27,27.20
2019,05,30,16,28,27.20
2019,05,30,16,29,27.20
2019,05,30,16,30,27.20
2019,05,30,16,31,27.20
2019,05,30,16,32,27.30
2019,05,30,16,33,27.50
2019,05,30,16,34,27.60
2019,05,30,16,35,27.70
2019,05,30,16,36,27.80
2019,05,30,16,37,27.80
2019,05,30,16,38,27.70
2019,05,30,16,39,27.70
2019,05,30,16,40,27.70
2019,05,30,16,41,27.80
2019,05,30,16,42,27.80
2019,05,30,16,43,27.80
2019,05,30,16,44,27.80
2019,05,30,16,45,27.70
2019,05,30,16,46,27.70
2019,05,30,16,47,27.70
2019,05,30,16,48,27.70
2019,05,30,16,49,27.70
2019,05,30,16,50,27.80
2019,05,30,16,51,27.90
2019,05,30,16,52,27.90
2019,05,30,16,53,28.00
2019,05,30,16,54,28.10
2019,05,30,16,55,28.10
2019,05,30,16,56,28.10
2019,05,30,16,57,28.00
2019,05,30,16,58,27.90
2019,05,30,16,59,27.80
2019,05,30,17,00,27.80
2019,05,30,17,01,27.90
2019,05,30,17,02,27.90
2019,05,30,17,03,28.00
2019,05,30,17,04,28.10
2019,05,30,17,05,28.00
2019,05,30,17,06,28.00
2019,05,30,17,07,28.00
2019,05,30,17,08,28.00
2019,05,30,17,09,28.10
2019,05,30,17,10,28.10
2019,05,30,17,11,28.10
2019,05,30,17,12,28.20
2019,05,30,17,13,28.20
2019,05,30,17,14,28.20
2019,05,30,17,15,28.20
2019,05,30,17,16,28.30
2019,05,30,17,17,28.30
2019,05,30,17,18,28.40
2019,05,30,17,19,28.50